Time,TemperatureF,DewpointF,PressureIn,WindDirection,WindDirectionDegrees,WindSpeedMPH,WindSpeedGustMPH,Humidity,HourlyPrecipIn,Conditions,Clouds,dailyrainin,SoftwareType,DateUTC
2013-11-16 00:03:00,-999.0,-99.9,-100.00,SSE,166,3.0,4.0,-999,-99.99,,,-99.99,,2013-11-16 05:03:00,
2013-11-16 00:23:00,34.0,-99.9,29.89,North,-999,-999.0,-999.0,-999,-99.99,,,-99.99,,2013-11-16 05:23:00,
2013-11-16 00:34:00,-999.0,-99.9,-100.00,SSE,162,3.0,4.0,-999,-99.99,,,-99.99,,2013-11-16 05:34:00,
2013-11-16 00:44:00,-999.0,-99.9,-100.00,SSE,162,3.0,3.0,-999,-99.99,,,-99.99,,2013-11-16 05:44:00,
2013-11-16 00:53:00,-999.0,-99.9,-100.00,SSE,161,3.0,4.0,-999,-99.99,,,-99.99,,2013-11-16 05:53:00,
2013-11-16 01:13:00,-999.0,-99.9,-100.00,SSE,165,3.0,3.0,-999,-99.99,,,-99.99,,2013-11-16 06:13:00,
2013-11-16 01:22:00,-999.0,-99.9,-100.00,SSE,156,4.0,5.0,-999,-99.99,,,-99.99,,2013-11-16 06:22:00,
2013-11-16 02:02:00,-999.0,-99.9,-100.00,SE,140,5.0,7.0,-999,-99.99,,,-99.99,,2013-11-16 07:02:00,
2013-11-16 02:22:00,-999.0,-99.9,-100.00,SE,139,6.0,7.0,-999,-99.99,,,-99.99,,2013-11-16 07:22:00,
2013-11-16 02:33:00,-999.0,-99.9,-100.00,SE,139,5.0,6.0,-999,-99.99,,,-99.99,,2013-11-16 07:33:00,
2013-11-16 02:42:00,-999.0,-99.9,-100.00,SE,137,5.0,6.0,-999,-99.99,,,-99.99,,2013-11-16 07:42:00,
2013-11-16 02:52:00,-999.0,-99.9,-100.00,SSE,147,5.0,6.0,-999,-99.99,,,-99.99,,2013-11-16 07:52:00,
2013-11-16 03:01:00,-999.0,-99.9,-100.00,SSE,151,5.0,6.0,-999,-99.99,,,-99.99,,2013-11-16 08:01:00,
2013-11-16 03:12:00,-999.0,-99.9,-100.00,SSE,148,6.0,6.0,-999,-99.99,,,-99.99,,2013-11-16 08:12:00,
2013-11-16 03:32:00,-999.0,-99.9,-100.00,SSE,153,5.0,6.0,-999,-99.99,,,-99.99,,2013-11-16 08:32:00,
2013-11-16 03:42:00,-999.0,-99.9,-100.00,SE,136,5.0,6.0,-999,-99.99,,,-99.99,,2013-11-16 08:42:00,
2013-11-16 03:52:00,-999.0,-99.9,-100.00,SSE,158,5.0,6.0,-999,-99.99,,,-99.99,,2013-11-16 08:52:00,
2013-11-16 04:02:00,-999.0,-99.9,-100.00,SE,138,4.0,6.0,-999,-99.99,,,-99.99,,2013-11-16 09:02:00,
2013-11-16 04:33:00,-999.0,-99.9,-100.00,SSE,148,5.0,5.0,-999,-99.99,,,-99.99,,2013-11-16 09:33:00,
2013-11-16 04:43:00,-999.0,-99.9,-100.00,SE,143,4.0,5.0,-999,-99.99,,,-99.99,,2013-11-16 09:43:00,
2013-11-16 04:53:00,-999.0,-99.9,-100.00,SE,139,6.0,8.0,-999,-99.99,,,-99.99,,2013-11-16 09:53:00,
2013-11-16 05:03:00,-999.0,-99.9,-100.00,SE,145,5.0,9.0,-999,-99.99,,,-99.99,,2013-11-16 10:03:00,
2013-11-16 05:13:00,35.0,-99.9,29.90,SE,145,5.0,9.0,-999,-99.99,,,-99.99,,2013-11-16 10:13:00,
2013-11-16 05:23:00,-999.0,-99.9,-100.00,SSE,147,7.0,9.0,-999,-99.99,,,-99.99,,2013-11-16 10:23:00,
2013-11-16 05:34:00,-999.0,-99.9,-100.00,SE,145,6.0,8.0,-999,-99.99,,,-99.99,,2013-11-16 10:34:00,
2013-11-16 05:43:00,-999.0,-99.9,-100.00,SE,140,5.0,7.0,-999,-99.99,,,-99.99,,2013-11-16 10:43:00,
2013-11-16 05:52:00,35.0,-99.9,29.90,North,-999,-999.0,-999.0,-999,-99.99,,,-99.99,,2013-11-16 10:52:00,
2013-11-16 06:02:00,-999.0,-99.9,-100.00,SE,144,7.0,8.0,-999,-99.99,,,-99.99,,2013-11-16 11:02:00,
2013-11-16 06:12:00,-999.0,-99.9,-100.00,SE,143,6.0,8.0,-999,-99.99,,,-99.99,,2013-11-16 11:12:00,
2013-11-16 06:22:00,-999.0,-99.9,-100.00,SE,143,6.0,7.0,-999,-99.99,,,-99.99,,2013-11-16 11:22:00,
2013-11-16 06:42:00,-999.0,-99.9,-100.00,SSE,154,6.0,8.0,-999,-99.99,,,-99.99,,2013-11-16 11:42:00,
2013-11-16 07:12:00,-999.0,-99.9,-100.00,SSE,152,6.0,12.0,-999,-99.99,,,-99.99,,2013-11-16 12:12:00,
2013-11-16 07:42:00,-999.0,-99.9,-100.00,SSE,156,6.0,10.0,-999,-99.99,,,-99.99,,2013-11-16 12:42:00,
2013-11-16 07:52:00,-999.0,-99.9,-100.00,SSE,149,6.0,8.0,-999,-99.99,,,-99.99,,2013-11-16 12:52:00,
2013-11-16 08:02:00,-999.0,-99.9,-100.00,SE,142,6.0,9.0,-999,-99.99,,,-99.99,,2013-11-16 13:02:00,
2013-11-16 08:22:00,-999.0,-99.9,-100.00,SE,141,10.0,13.0,-999,-99.99,,,-99.99,,2013-11-16 13:22:00,
2013-11-16 08:32:00,-999.0,-99.9,-100.00,SE,142,9.0,14.0,-999,-99.99,,,-99.99,,2013-11-16 13:32:00,
2013-11-16 08:42:00,-999.0,-99.9,-100.00,SSE,154,8.0,12.0,-999,-99.99,,,-99.99,,2013-11-16 13:42:00,
2013-11-16 09:22:00,39.0,-99.9,29.90,North,-999,-999.0,-999.0,-999,-99.99,,,-99.99,,2013-11-16 14:22:00,
2013-11-16 09:32:00,-999.0,-99.9,-100.00,SSE,147,11.0,16.0,-999,-99.99,,,-99.99,,2013-11-16 14:32:00,
2013-11-16 09:52:00,-999.0,-99.9,-100.00,SE,143,10.0,15.0,-999,-99.99,,,-99.99,,2013-11-16 14:52:00,
2013-11-16 10:54:00,-999.0,-99.9,-100.00,SE,146,13.0,18.0,-999,-99.99,,,-99.99,,2013-11-16 15:54:00,
2013-11-16 11:03:00,-999.0,-99.9,-100.00,SSE,152,13.0,19.0,-999,-99.99,,,-99.99,,2013-11-16 16:03:00,
2013-11-16 11:33:00,-999.0,-99.9,-100.00,SSE,149,14.0,21.0,-999,-99.99,,,-99.99,,2013-11-16 16:33:00,
2013-11-16 11:43:00,-999.0,-99.9,-100.00,SSE,154,12.0,20.0,-999,-99.99,,,-99.99,,2013-11-16 16:43:00,
2013-11-16 11:53:00,-999.0,-99.9,-100.00,SSE,152,16.0,21.0,-999,-99.99,,,-99.99,,2013-11-16 16:53:00,
2013-11-16 12:34:00,-999.0,-99.9,-100.00,SE,143,11.0,18.0,-999,-99.99,,,-99.99,,2013-11-16 17:34:00,
2013-11-16 12:43:00,-999.0,-99.9,-100.00,SSE,150,14.0,20.0,-999,-99.99,,,-99.99,,2013-11-16 17:43:00,
2013-11-16 13:02:00,-999.0,-99.9,-100.00,SE,146,12.0,18.0,-999,-99.99,,,-99.99,,2013-11-16 18:02:00,
2013-11-16 13:12:00,-999.0,-99.9,-100.00,SE,138,14.0,21.0,-999,-99.99,,,-99.99,,2013-11-16 18:12:00,
2013-11-16 13:32:00,-999.0,-99.9,-100.00,SSE,152,14.0,21.0,-999,-99.99,,,-99.99,,2013-11-16 18:32:00,
2013-11-16 14:22:00,44.0,-99.9,29.79,North,-999,-999.0,-999.0,-999,-99.99,,,-99.99,,2013-11-16 19:22:00,
2013-11-16 14:32:00,-999.0,-99.9,-100.00,SE,139,11.0,18.0,-999,-99.99,,,-99.99,,2013-11-16 19:32:00,
2013-11-16 15:22:00,-999.0,-99.9,-100.00,SE,137,11.0,19.0,-999,-99.99,,,-99.99,,2013-11-16 20:22:00,
2013-11-16 18:22:00,-999.0,-99.9,-100.00,SE,136,13.0,19.0,-999,-99.99,,,-99.99,,2013-11-16 23:22:00,
2013-11-16 18:53:00,45.0,-99.9,29.70,North,-999,-999.0,-999.0,-999,-99.99,,,-99.99,,2013-11-16 23:53:00,
2013-11-16 19:52:00,-999.0,-99.9,-100.00,SE,143,14.0,19.0,-999,-99.99,,,-99.99,,2013-11-17 00:52:00,
2013-11-16 20:02:00,-999.0,-99.9,-100.00,SE,145,14.0,21.0,-999,-99.99,,,-99.99,,2013-11-17 01:02:00,
2013-11-16 20:12:00,-999.0,-99.9,-100.00,SE,146,12.0,20.0,-999,-99.99,,,-99.99,,2013-11-17 01:12:00,
2013-11-16 21:12:00,-999.0,-99.9,-100.00,SE,143,12.0,19.0,-999,-99.99,,,-99.99,,2013-11-17 02:12:00,
2013-11-16 21:22:00,-999.0,-99.9,-100.00,SE,139,16.0,21.0,-999,-99.99,,,-99.99,,2013-11-17 02:22:00,
2013-11-16 22:44:00,-999.0,-99.9,-100.00,SE,140,14.0,22.0,-999,-99.99,,,-99.99,,2013-11-17 03:44:00,
2013-11-16 23:24:00,47.0,-99.9,29.53,North,-999,-999.0,-999.0,-999,-99.99,,,-99.99,,2013-11-17 04:24:00,